Regional Weather Roundup
Issued by NWS

Home | Current Version | Previous Version | Graphics & Text | Print | Product List | Glossary On
Versions: 1 2 3 4 5 6 7 8 9 10 11 12 13 14 15 16 17 18 19 20 21 22 23 24 25 26 27 28 29 30 31 32 33 34 35 36 37 38 39 40 41 42 43 44 45 46 47 48 49 50
000
ASUS45 KTFX 301910
RWRMT
MONTANA REGIONAL WEATHER ROUNDUP
NATIONAL WEATHER SERVICE GREAT FALLS MT
100 PM MDT SAT MAY 30 2015

NOTE: "FAIR" INDICATES FEW OR NO CLOUDS BELOW 12000 FEET WITH NO
SIGNIFICANT WEATHER AND/OR OBSTRUCTIONS TO VISIBILITY.

MTZ001>007-043-302000-
WEST OF THE DIVIDE

CITY           SKY/WX    TMP DP  RH WIND       PRES   REMARKS
KALISPELL      CLOUDY    65  53  65 NE5       30.00F
MISSOULA       CLOUDY    68  50  52 SE7       30.02F
BUTTE          LGT RAIN  62  41  46 SW9       30.11R
MULLAN PASS    PTSUNNY   59  47  64 VRB7      30.07S
DEER LODGE       N/A     61  48  63 S3        30.12R
EUREKA           N/A     66  52  59 S7        29.98S
HAMILTON         N/A     61  50  67 W7        30.05S
LIBBY            N/A     59  55  88 W6        30.03R
PLAINS           N/A     70  55  58 CALM      29.98F
RONAN            N/A     64  56  75 CALM      30.06F
THOMPSON FALLS   N/A     65  55  69 NE8       30.00R
$$

MTZ008-052>055-302000-
SOUTHWEST MONTANA

CITY           SKY/WX    TMP DP  RH WIND       PRES   REMARKS
BOZEMAN        CLOUDY    68  51  54 CALM      30.05F
DILLON         CLOUDY    63  46  54 NW6       30.10S
W YELLOWSTONE  CLOUDY    64  39  39 S16G26    30.17F
$$

MTZ009-010-012-014-046-048-049-054-302000-
EAST SLOPES AND CENTRAL MONTANA

CITY           SKY/WX    TMP DP  RH WIND       PRES   REMARKS
CUT BANK       CLOUDY    58  48  69 S8        30.02F
GREAT FALLS    CLOUDY    59  53  80 CALM      30.02F
MALMSTROM AFB  CLOUDY    57  51  79 E2        30.03S
HELENA         CLOUDY    64  52  64 CALM      30.02S
CONRAD           N/A     55  54  97 N3        30.05F
$$

MTZ011-013-016-021-045-047-050-051-302000-
NORTH CENTRAL MONTANA

CITY           SKY/WX    TMP DP  RH WIND       PRES   REMARKS
HAVRE          PTSUNNY   69  47  45 SW14      29.98S
LEWISTOWN      PTSUNNY   66  51  58 E7        30.01R
N BAR RANCH    FAIR      68  48  49 S15G25    30.04F
CHINOOK          N/A     66  45  45 E13G20    29.99F
FORT BENTON      N/A     64  46  52 CALM      30.01F
$$

MTZ017>020-022>027-061-062-302000-
NORTHEAST MONTANA

CITY           SKY/WX    TMP DP  RH WIND       PRES   REMARKS
GLASGOW        MOSUNNY   65  38  36 SE23G35   30.08F
JORDAN           N/A     70  42  36 SE18G26   30.04F
SIDNEY         SUNNY     64  34  32 SE13G24   30.19F
WOLF POINT     PTSUNNY   64  39  39 SE12G20   30.14F
MALTA            N/A     69  43  39 E20       30.00F
PLENTYWOOD       N/A     57  32  38 SE15G30   30.20F
POPLAR           N/A     63  32  31 E20       30.15F
SCOBEY           N/A     61  32  33 E21       30.15F
$$

MTZ028>42-056>058-302000-
SOUTHCENTRAL AND SOUTHEAST MONTANA

CITY           SKY/WX    TMP DP  RH WIND       PRES   REMARKS
BAKER          LGT RAIN  63  38  39 SE24G32   30.16F
BILLINGS       CLOUDY    68  52  56 VRB6      30.03F
LIVINGSTON     LGT RAIN  66  51  58 N5        30.04S
MILES CITY     MOSUNNY   70  43  37 SE22G30   30.07F
BIG TIMBER       N/A     64  52  63 E5        30.04F
EKALAKA          N/A     62  40  44 SE16      30.11F
LAUREL           N/A     68  53  58 NE3       30.01F
ROUNDUP          N/A     70  48  45 E9        29.93F
$$

REGIONAL REPORTS...DAKOTAS

CITY           SKY/WX    TMP DP  RH WIND       PRES   REMARKS
WILLISTON      SUNNY     60  35  39 SE16G24   30.24F
MINOT          SUNNY     53  29  39 E14       30.33F
DICKINSON      SUNNY     57  36  45 SE23G29   30.22F
BEACH          FAIR      59  37  44 SE24G30   30.18F
CROSBY         FAIR      57  32  38 SE16G24   30.27F
WATFORD CITY   FAIR      57  37  47 SE20G29   30.22F
BISMARCK       SUNNY     55  33  43 MISG      30.34F
GRAND FORKS    MOSUNNY   51  30  44 N9        30.38F
FARGO          SUNNY     53  36  52 N10       30.35F
BUFFALO SD       N/A     60  40  47 SE28G36   30.13F
RAPID CITY     SUNNY     60  44  55 S18G24    30.23F
$$

REGIONAL REPORTS...WYOMING/IDAHO/WASHINGTON

CITY           SKY/WX    TMP DP  RH WIND       PRES   REMARKS
GILLETTE       MOSUNNY   62  50  64 SE20G28   30.12F
SHERIDAN       MOSUNNY   69  53  56 NW6       30.06F
BUFFALO WY     MOSUNNY   70  50  49 S10       30.10F
CODY           PTSUNNY   72  41  33 SW8       30.08F
YELLOWSTONE LA   N/A     60  36  40 VRB6G18   30.25F
IDAHO FALLS    MOSUNNY   73  51  46 W7        30.09F
SALMON           N/A     64  46  52 CALM      30.06F
BOISE          CLOUDY    76  48  37 NW8       29.96S
SPOKANE        PTSUNNY   75  51  43 S12       29.90S
$$

REGIONAL REPORTS...ALBERTA

CITY           SKY/WX    TMP DP  RH WIND       PRES   REMARKS
EDMONTON       CLOUDY    55  39  54 SE14G21   30.06S
CALGARY        CLOUDY    55  46  71 S7        30.01F
LETHBRIDGE     PTSUNNY   61  54  77 E9        30.00F
MEDICINE HAT   CLOUDY    66  39  37 VRB2      30.01S
$$

REGIONAL REPORTS...SASKATCHEWAN

CITY           SKY/WX    TMP DP  RH WIND       PRES   REMARKS
SWIFT CURRENT  CLOUDY    61  34  36 SE16G29   30.10F
REGINA         MOSUNNY   57  34  41 SE18G25   30.26F
SASKATOON      PTSUNNY   59  32  36 SE15G22   30.24F
$$



USA.gov is the U.S. government's official web portal to all federal, state and local government web resources and services.